Flag for Greece Weather past 2 weeks in Thessaloniki, Greece

Now
63 °F

Clear.


Feels Like: 63 °F
Forecast: 53 / 79 °F
Wind: 5 mph from Southeast

Location: Thessaloniki Airport

Current Time: May 31, 2015 at 12:45:23 AM

Latest Report: May 30, 2015 at 11:50 PM


Visibility: 10 mi

Pressure: 30.01 "Hg

Humidity: 73%

Dew point: 54 °F

Location of ThessalonikiLocation

Historic Weather in Thessaloniki — Graph

°F

Thessaloniki temperature yesterday

Maximum temperature yesterday: 79 °F (at 4:20 PM)
Minimum temperature yesterday: 50 °F (at 4:20 AM)
Average temperature yesterday: 65 °F

Past Weeks' High & Low Weather Summary

 TemperatureHumidityPressure
High84 °F (May 20, 5:50 PM)94% (May 17, 3:20 AM)30.09 "Hg (May 17, 3:20 AM)
Low50 °F (May 30, 4:20 AM)23% (May 26, 3:50 PM)29.68 "Hg (May 27, 1:50 AM)
Average70 °F61%29.87 "Hg
* Reported May 15 10:20 PM — May 30 10:50 PM, Thessaloniki, Weather by CustomWeather, © 2015

Note: Actual official high and low records may vary slightly from our data, if they occured in-between our weather recording intervals... More about our weather records

Advertising

Thessaloniki weather history for previous 24 hours

 ConditionsComfort  
Time TempWeatherWind HumidityBarometerVisibility
10:50 PM
Sat, May 30
64 °FClear.6 mph73%30.01 "Hg10 mi
10:20 PM64 °FClear.6 mph68%30.01 "Hg10 mi
9:50 PM66 °FClear.8 mph60%29.98 "Hg10 mi
9:20 PM66 °FSunny.9 mph60%29.98 "Hg10 mi
8:50 PM68 °FSunny.13 mph56%29.98 "Hg10 mi
8:20 PM70 °FSunny.15 mph53%29.95 "Hg10 mi
7:50 PM72 °FSunny.14 mph53%29.95 "Hg10 mi
7:20 PM73 °FSunny.16 mph33%29.95 "Hg10 mi
6:50 PM73 °FSunny.16 mph36%29.95 "Hg10 mi
6:20 PM75 °FSunny.14 mph34%29.95 "Hg10 mi
5:50 PM77 °FPassing clouds.14 mph30%29.95 "HgN/A
5:20 PM79 °FPassing clouds.13 mph28%29.95 "HgN/A
4:50 PM79 °FPassing clouds.9 mph28%29.95 "HgN/A
4:20 PM79 °FPassing clouds.8 mph26%29.95 "HgN/A
3:50 PM77 °FPassing clouds.9 mph32%29.95 "HgN/A
3:20 PM77 °FPassing clouds.8 mph30%29.98 "HgN/A
2:50 PM75 °FPassing clouds.9 mph34%29.98 "HgN/A
2:20 PM75 °FPassing clouds.9 mph41%29.98 "HgN/A
1:50 PM75 °FPassing clouds.10 mph39%29.98 "HgN/A
1:20 PM75 °FPassing clouds.9 mph39%29.98 "HgN/A
12:50 PM75 °FPassing clouds.9 mph36%30.01 "HgN/A
12:20 PM73 °FPassing clouds.9 mph38%30.01 "HgN/A
11:50 AM72 °FPassing clouds.9 mph41%30.01 "HgN/A
11:20 AM72 °FPassing clouds.10 mph41%30.01 "HgN/A
10:50 AM70 °FPassing clouds.10 mph50%30.01 "HgN/A
10:20 AM68 °FPassing clouds.7 mph53%30.01 "HgN/A
9:50 AM66 °FPassing clouds.6 mph56%30.01 "HgN/A
9:20 AM63 °FPassing clouds.5 mph59%30.01 "HgN/A
8:50 AM61 °FSunny.2 mph59%30.01 "Hg10 mi
8:20 AM59 °FSunny.2 mph68%30.01 "Hg10 mi
7:50 AM55 °FSunny.5 mph72%29.98 "Hg10 mi
7:20 AM54 °FSunny.5 mph77%29.98 "Hg10 mi
6:50 AM50 °FClear.5 mph82%29.98 "Hg10 mi
6:20 AM50 °FClear.5 mph82%29.98 "Hg10 mi
5:50 AM50 °FClear.6 mph82%29.98 "Hg10 mi
5:20 AM50 °FClear.5 mph82%29.98 "Hg10 mi
4:50 AM50 °FClear.6 mph88%29.98 "Hg10 mi
4:20 AM50 °FClear.6 mph88%29.95 "Hg10 mi
3:50 AM52 °FClear.7 mph82%29.98 "Hg10 mi
3:20 AM52 °FClear.7 mph82%29.98 "Hg10 mi
2:50 AM52 °FClear.6 mph82%29.98 "Hg10 mi
2:20 AM52 °FPassing clouds.6 mph82%29.98 "HgN/A
1:50 AM54 °FPassing clouds.6 mph77%29.98 "HgN/A
1:20 AM54 °FPassing clouds.6 mph82%29.98 "HgN/A
12:50 AM54 °FPassing clouds.7 mph82%29.98 "HgN/A
12:20 AM55 °FPassing clouds.6 mph77%29.98 "HgN/A
Weather by CustomWeather, © 2015

See weather overviewHow to use our weather pages